Weather Roundup
Issued by NWS Chicago, IL

Home | Current Version | Previous Version | Text Only | Print | Product List | Glossary Off
Versions: 1 2 3 4 5 6 7 8 9 10 11 12 13 14 15 16 17 18 19 20 21 22 23 24 25 26 27 28 29 30 31 32 33 34 35 36 37 38 39 40 41 42 43 44 45 46 47 48 49 50

000
NZUS59 KLOT 120110
HRRLOT

CHICAGO AREA WEATHER ROUNDUP
NATIONAL WEATHER SERVICE CHICAGO/ROMEOVILLE IL
800 PM CDT FRI JUL 11 2014

NOTE: "FAIR" INDICATES FEW OR NO CLOUDS BELOW 12,000 FEET WITH NO
SIGNIFICANT WEATHER AND/OR OBSTRUCTIONS TO VISIBILITY.

* THESE STATIONS ARE NOT UNDER NWS QUALITY CONTROL. THEY ALSO MAY NOT
  REPORT WEATHER SUCH AS PRECIPITATION OR FOG.

ILZ005-006-012>014-019>023-120200-
NORTHEAST ILLINOIS

CITY           SKY/WX    TMP DP  RH WIND       PRES   REMARKS
OHARE          MOCLDY    75  57  53 S7        30.10F
MIDWAY         CLOUDY    80  57  45 S8        30.11S HX  80
AURORA         CLOUDY    73  62  68 SE6       30.11S
LANSING*       CLOUDY    74  57  56 S3        30.13R
JOLIET*        CLOUDY    75  57  53 SE3       30.11F
WAUKEGAN       MOCLDY    71  58  63 E3        30.11S
DUPAGE AIRPORT CLOUDY    74  58  57 S6        30.11S
WHEELING       MOCLDY    75  61  61 SE5       30.12F
KANKAKEE*      MOCLDY    74  62  66 SE5       30.12F
MORRIS*        CLOUDY    74  62  66 SE6       30.08F
LEWIS AIRPORT* CLOUDY    74  58  57 S6        30.11S
NORTHERLY IS     N/A     73  59  61 S3          N/A
$$

WIZ051-052-058>065-066-070>072-120200-
SOUTHEAST WISCONSIN

CITY           SKY/WX    TMP DP  RH WIND       PRES   REMARKS
MILWAUKEE      MOCLDY    71  54  54 S6        30.12S
KENOSHA*       CLOUDY    73  58  59 SE3       30.12S
RACINE*        MOCLDY    72  57  59 SE3       30.14S
BURLINGTON     MOCLDY    70  58  66 S3        30.12S
WAUKESHA       PTCLDY    73  54  49 CALM      30.12F
WEST BEND      CLOUDY    70  50  49 SE6       30.11F
$$

INZ001>003-010>013-019-020-120200-
NORTHWEST INDIANA

CITY           SKY/WX    TMP DP  RH WIND       PRES   REMARKS
GARY*          MOCLDY    77  57  50 S5        30.13R
MICHIGAN CITY* NOT AVBL
RENSSELAER*    NOT AVBL
VALPARAISO     CLOUDY    72  61  68 CALM      30.14S
$$

LMZ740>746-120200-
SOUTHERN LAKE MICHIGAN

STATION/POSITION TIME  SKY/WX   TEMP WIND        PRES    VSBY
                                AIR  DIR/SP/G
                 (UTC)          (F)  (DEG/KT/KT) (MB)    (MI)
HARRISON CRIB    0100            71  140/  8/  9   N/A
BURNHAM HARBOR   0100            75  190/  5       N/A
CALUMET HARBOR   0100            78  180/  7/ 11 1020.7R
BURNS HARBOR     0000            75  190/  9/ 12 1020.3R
MICHIGAN CITY    0100            74  170/  4/  7   N/A
$$

ABBREVIATIONS USED IN REMARKS
   TC - TEMPERATURE IN CELSIUS
  WCI - WIND CHILL INDEX
   HX - HEAT INDEX
  VSB - VISIBILITY
$$



USA.gov is the U.S. government's official web portal to all federal, state and local government web resources and services.